Tracking 31027 objects as of 19-Jul-2025
HD Live streaming from Space Station
objects crossing your sky now

STARLINK-6343

Track STARLINK-6343 now!
10-day predictions
STARLINK-6343 is classified as:


NORAD ID: 57362
Int'l Code: 2023-099AL
Perigee: 565.7 km
Apogee: 566.8 km
Inclination: 43.0 °
Period: 95.8 minutes
Semi major axis: 6937 km
RCS: Unknown
Launch date: July 16, 2023
Source: United States (US)
Launch site: AIR FORCE EASTERN TEST RANGE (AFETR)
Your satellite tracking list
BELINTERSAT 1
Track 1 satellite(s)




NASA's NSSDC Master Catalog

Two Line Element Set (TLE):
1 57362U 23099AL  25199.34186706 -.00001695  00000-0 -11050-3 0  9990
2 57362  43.0049  69.3998 0000753 270.0542  90.0214 15.02521779111013
Source of the keplerian elements: AFSPC